Hourly Data Report for November 17, 2019

CARBERRY CS
MANITOBA
Current Station Operator: ECCC - MSC

49°54'20.900" N
99°21'26.800" W
383.50 m
5010547
71170
WZE

Download Data

Hourly Data (November 2019)
Hourly Data Report for November 17, 2019
TIME
LST
Temp Definition
°C
Dew Point Definition
°C
Rel Hum Definition
%
Precip. Amount Definition
mm

Wind Dir Definition
10's deg

Wind Spd Definition
km/h
Visibility Definition
km
Stn Press Definition
kPa
Hmdx Definition


Wind Chill Definition


Weather Definition


00:00 -2.2 -5.5 78 0.0 28 24   96.79   -9 LegendNANA
01:00 -2.7 -4.9 85 0.0 34 11   96.85   -7 LegendNANA
02:00 -2.3 -5.6 78 0.0 31 16   96.83   -7 LegendNANA
03:00 -2.3 -5.4 79 0.0 31 16   96.83   -7 LegendNANA
04:00 -2.3 -5.0 82 0.0 31 11   96.85   -6 LegendNANA
05:00 -2.5 -4.9 84 0.0 32 13   96.85   -7 LegendNANA
06:00 -2.6 -4.7 86 0.0 31 12   96.87   -7 LegendNANA
07:00 -2.9 -4.2 90 0.0 29 15   96.88   -8 LegendNANA
08:00 -3.1 -4.2 92 0.0 31 8   96.83   -6 LegendNANA
09:00 -2.9 -3.6 95 0.0 28 5   96.80   -5 LegendNANA
10:00 -2.9 -3.8 93 0.0 30 7   96.76   -6 LegendNANA
11:00 -2.8 -3.3 96 0.0 24 7   96.75   -6 LegendNANA
12:00 -2.5 -4.1 89 0.0 24 13   96.66   -7 LegendNANA
13:00 -2.0 -3.4 90 0.0 22 8   96.53   -5 LegendNANA
14:00 -1.4 -3.3 87 0.0 20 7   96.45   -4 LegendNANA
15:00 -0.9 -2.9 87 0.0 20 8   96.35   -4 LegendNANA
16:00 -0.8 -2.7 87 0.0 17 10   96.25   -4 LegendNANA
17:00 -0.8 -2.5 89 0.0 15 10   96.20   -4 LegendNANA
18:00 -1.0 -2.2 91 0.0 16 9   96.15   -4 LegendNANA
19:00 -1.4 -2.0 95 0.0 13 9   96.07   -5 LegendNANA
20:00 -1.2 -1.9 95 0.0 14 12   95.96   -5 LegendNANA
21:00 -0.6 -1.4 94 0.0 15 10   95.88   -4 LegendNANA
22:00 -0.2 -1.0 94 0.0 15 12   95.77   -4 LegendNANA
23:00 -0.4 -1.0 95 0.0 14 12   95.69   -4 LegendNANA

Notes on Data Quality.

Legend

  • E = Estimated
  • M = Missing
  • NA = Not Available*
  • [empty] = Indicates an unobserved value
Date modified: